Tracking 26198 objects as of 1-Oct-2022
HD Live streaming from Space Station
objects crossing your sky now

STARLINK-3396

Track STARLINK-3396 now!
10-day predictions
STARLINK-3396 is classified as:


NORAD ID: 51129
Int'l Code: 2022-005AB
Perigee: 545.9 km
Apogee: 547.9 km
Inclination: 53.2 °
Period: 95.4 minutes
Semi major axis: 6917 km
RCS: Unknown
Launch date: January 19, 2022
Source: United States (US)
Launch site: AIR FORCE EASTERN TEST RANGE (AFETR)
aabbcc
Your satellite tracking list
Your tracking list is empty




NASA's NSSDC Master Catalog

Two Line Element Set (TLE):
1 51129U 22005AB  22273.45244020  .00001670  00000-0  12296-3 0  9991
2 51129  53.2161 178.6017 0001431  46.0896 314.0214 15.08841629 39089
Source of the keplerian elements: AFSPC